Location: La Plant
(45.1447°N, 100.6515°W)
Time: 21:28:27
(UTC+00:00)

ISS - Pass Details

Date: 01 December 2020
Orbit: 418 x 419 km, 51.6° (Epoch: 18 January)

Event Time Altitude Azimuth Distance (km) Brightness Sun altitude
Rises 00:50:18 0° 294° (WNW) 2,369 0.9 -18.5°
Reaches altitude 10° 00:52:35 10° 307° (NW) 1,503 -0.4 -18.9°
Enters shadow 00:55:12 27° 356° (N) 834 -2.4 -19.3°
